New Haven, CT

3:36 PM EDT on July 26, 2017 (GMT -0400)
Tweed-New Haven

Weather History for KHVN - March, 2013

Change the Weather History Date:

Saturday, March 30, 2013

  Actual Average Record
Temperature  
Mean Temperature 42 °F -  
Max Temperature 57 °F 49 °F 76 °F (1977)
Min Temperature 30 °F 35 °F 19 °F (1970)
Degree Days  
Heating Degree Days 22    
Moisture  
Dew Point 27 °F    
Average Humidity 51    
Maximum Humidity 79    
Minimum Humidity 24    
Precipitation  
Precipitation 0.00 in - - ()
Sea Level Pressure  
Sea Level Pressure 30.10 in    
Wind  
Wind Speed 4 mph (West)    
Max Wind Speed 10 mph    
Max Gust Speed 17 mph    
Visibility 10 miles    
Events      
Averages and records for this station are not official NWS values.
T = Trace of Precipitation, MM = Missing Value Source: NWS Daily Summary

Daily Weather History Graph

Daily Weather History Graph

Search for Another Location

Airport or City:

Trip Planner

Search our weather history database for the weather conditions in past years. The results will help you decide how hot, cold, wet, or windy it might be!

Date:

Astronomy

Mar. 30, 2013 Rise Set
Actual Time 6:37 AM EDT 7:14 PM EDT
Civil Twilight 6:09 AM EDT 7:42 PM EDT
Nautical Twilight 5:37 AM EDT 8:15 PM EDT
Astronomical Twilight 5:03 AM EDT 8:49 PM EDT
Moon 11:20 PM EDT (3/30) 8:28 AM EDT (3/30)
Length of Visible Light 13h 32m
Length of Day
12h 37m
Waning Gibbous, 86% of the Moon is Illuminated
Mar 30
Waning Gibbous
Apr 3
Last Quarter
Apr 10
New
Apr 18
First Quarter
Apr 25
Full

Hourly Weather History & Observations

Time (EDT) Temp. Windchill Dew Point Humidity Pressure Visibility Wind Dir Wind Speed Gust Speed Precip Events Conditions
12:53 AM 44.1 °F 40.8 °F 27.0 °F 51% 30.10 in 10.0 mi North 5.8 mph - N/A   Mostly Cloudy
1:53 AM 43.0 °F 41.3 °F 28.0 °F 56% 30.10 in 10.0 mi NW 3.5 mph - N/A   Clear
2:53 AM 41.0 °F - 30.0 °F 65% 30.11 in 10.0 mi Calm Calm - N/A   Clear
3:53 AM 41.0 °F 39.0 °F 28.0 °F 60% 30.10 in 10.0 mi WNW 3.5 mph - N/A   Clear
4:53 AM 39.0 °F - 28.0 °F 65% 30.10 in 10.0 mi Calm Calm - N/A   Clear
5:53 AM 34.0 °F - 26.1 °F 73% 30.11 in 10.0 mi Calm Calm - N/A   Clear
6:53 AM 30.9 °F - 25.0 °F 79% 30.12 in 10.0 mi Calm Calm - N/A   Clear
7:53 AM 41.0 °F 39.0 °F 30.9 °F 67% 30.13 in 10.0 mi West 3.5 mph - N/A   Clear
8:53 AM 45.0 °F 41.2 °F 30.9 °F 58% 30.14 in 10.0 mi NNW 6.9 mph - N/A   Clear
9:53 AM 48.9 °F - 28.9 °F 46% 30.13 in 10.0 mi West 4.6 mph - N/A   Clear
10:53 AM 53.1 °F - 24.1 °F 32% 30.12 in 10.0 mi Variable 5.8 mph - N/A   Scattered Clouds
11:53 AM 54.0 °F - 21.9 °F 29% 30.11 in 10.0 mi WNW 9.2 mph - N/A   Scattered Clouds
12:53 PM 55.0 °F - 19.0 °F 24% 30.09 in 10.0 mi WNW 5.8 mph - N/A   Scattered Clouds
1:53 PM 55.9 °F - 19.9 °F 25% 30.07 in 10.0 mi NW 8.1 mph 17.3 mph N/A   Scattered Clouds
2:53 PM 54.0 °F - 25.0 °F 33% 30.06 in 10.0 mi Variable 4.6 mph - N/A   Scattered Clouds
3:53 PM 53.1 °F - 26.1 °F 35% 30.05 in 10.0 mi SW 9.2 mph - N/A   Scattered Clouds
4:53 PM 53.1 °F - 25.0 °F 34% 30.05 in 10.0 mi SSW 10.4 mph - N/A   Overcast
5:53 PM 53.1 °F - 26.1 °F 35% 30.06 in 10.0 mi Calm Calm - N/A   Clear
6:53 PM 51.1 °F - 28.0 °F 41% 30.06 in 10.0 mi SW 6.9 mph - N/A   Clear
7:53 PM 48.9 °F - 27.0 °F 43% 30.08 in 10.0 mi Calm Calm - N/A   Clear
8:53 PM 46.0 °F 43.9 °F 33.1 °F 61% 30.10 in 10.0 mi SW 4.6 mph - N/A   Clear
9:53 PM 45.0 °F 42.6 °F 34.0 °F 65% 30.12 in 10.0 mi Variable 4.6 mph - N/A   Clear
10:53 PM 41.0 °F - 30.0 °F 65% 30.12 in 10.0 mi Calm Calm - N/A   Clear
11:53 PM 36.0 °F - 28.0 °F 73% 30.13 in 10.0 mi Calm Calm - N/A   Clear